This demonstration page uses our WeatherBlox Daily Observations layout. Learn more.

39.92423, -83.80882

Hourly Observations for August 2, 2017

Temp ( °F °C ) Dew Point ( °F °C ) Humidity (%) Winds ( mph kmh ) Pressure ( in mb ) Visibility ( mi km ) Precip ( " mm )
12:56 am 00:56 Clear 64 17.8 62 16.7 93 93 SE 3 6 30.09 1019 10 16.0934 0 0
1:56 am 01:56 Clear 63 17.2 61 16.1 93 93 E 3 6 30.08 1019 10 16.0934 0 0
2:56 am 02:56 Clear 62 16.7 61 16.1 96 96 SE 3 6 30.07 1018 8 12.87472 0 0
3:56 am 03:56 Clear 62 16.7 61 16.1 96 96 Calm 30.06 1018 8 12.87472 0 0
4:56 am 04:56 Clear 62 16.7 60 15.6 93 93 Calm 30.06 1018 8 12.87472 0 0
5:56 am 05:56 Clear with Mist and Fog 60 15.6 60 15.6 100 100 Calm 30.07 1018 6 9.65604 0 0
6:56 am 06:56 Sunny 61 16.1 60 15.6 97 97 E 3 6 30.08 1019 7 11.26538 0 0
7:56 am 07:56 Sunny 66 18.9 64 17.8 93 93 S 3 6 30.09 1019 10 16.0934 0 0
8:56 am 08:56 Mostly Sunny 69 20.6 66 18.9 90 90 WSW 3 6 30.09 1019 10 16.0934 0 0
9:56 am 09:56 Sunny 72 22.2 68 20 87 87 SE 3 6 30.08 1019 10 16.0934 0 0
10:56 am 10:56 Sunny 75 23.9 67 19.4 76 76 VRB 5 7 30.09 1019 10 16.0934 0 0
11:56 am 11:56 Sunny 78 25.6 66 18.9 67 67 SSW 5 7 30.09 1019 10 16.0934 0 0
12:56 pm 12:56 Mostly Cloudy 79 26.1 66 18.9 65 65 SSW 6 9 30.08 1019 10 16.0934 0 0
1:56 pm 13:56 Mostly Cloudy 80 26.7 68 20 67 67 SSW 7 11 30.07 1018 10 16.0934 0 0
2:56 pm 14:56 Sunny 80 26.7 67 19.4 64 64 VRB 6 9 30.05 1018 10 16.0934 0 0
3:56 pm 15:56 Sunny 82 27.8 65 18.3 56 56 S 6 9 30.03 1017 10 16.0934 0 0
4:56 pm 16:56 Partly Cloudy 81 27.2 65 18.3 58 58 SSW 8 13 30.03 1017 10 16.0934 0 0
5:56 pm 17:56 Mostly Cloudy 79 26.1 65 18.3 62 62 SSW 5 7 30.02 1017 10 16.0934 0 0
6:56 pm 18:56 Sunny 79 26.1 66 18.9 65 65 SSW 6 9 30.02 1017 10 16.0934 0 0
7:56 pm 19:56 Partly Cloudy 76 24.4 68 20 77 77 Calm 30.03 1017 10 16.0934 0 0
8:12 pm 20:12 Mostly Cloudy with Thunderstorms 75 24 66 19 74 74 SSW 6 9 30.03 1017 10 16.0934 0 0
8:37 pm 20:37 Partly Cloudy with Thunderstorms 72 22 61 16 69 69 SSE 9 15 30.03 1017 9 14.48406 0 0
8:56 pm 20:56 Mostly Clear with Nearby Thunderstorms 69 20.6 64 17.8 84 84 S 8 13 30.05 1018 10 16.0934 0 0.0254
9:34 pm 21:34 Clear 70 21 66 19 88 88 SE 6 9 30.03 1017 10 16.0934 0 0.0254
9:56 pm 21:56 Mostly Clear with Nearby Thunderstorms 68 20 66 18.9 93 93 Calm 30.06 1018 10 16.0934 0 0.0254
10:16 pm 22:16 Clear 68 20 66 19 94 94 SE 5 7 30.06 1018 10 16.0934 0 0
10:56 pm 22:56 Clear 67 19.4 65 18.3 93 93 Calm 30.07 1018 10 16.0934 0 0

Powered by AerisWeather